Flag for South Korea Weather past 2 weeks in Gunsan, South Korea

Now
34 °F

Haze.


Feels Like: 34 °F
Forecast: 31 / 48 °F
Wind: 2 mph from East

Location: Kunsan Ab

Current Time: Mar 6, 2015 at 9:38:07 AM

Latest Report: Mar 6, 2015 at 8:58 AM


Visibility: 6 mi

Pressure: 30.29 "Hg

Humidity: 67%

Dew point: 24 °F

Location of GunsanLocation

Historic Weather in Gunsan — Graph

°F

Gunsan temperature yesterday

Maximum temperature yesterday: 40 °F (at 2:58 PM)
Minimum temperature yesterday: 24 °F (at 4:58 AM)
Average temperature yesterday: 32 °F

Past Weeks' High & Low Weather Summary

 TemperatureHumidityPressure
High50 °F (Feb 20, 2:58 PM)100% (Feb 21, 3:58 PM)30.42 "Hg (Feb 21, 3:58 PM)
Low24 °F (Mar 5, 4:58 AM)35% (Feb 28, 3:58 PM)29.83 "Hg (Mar 3, 2:58 PM)
Average38 °F70%30.18 "Hg
* Reported Feb 19 7:58 AM — Mar 6 7:58 AM, Gunsan, Weather by CustomWeather, © 2015

Note: Actual official high and low records may vary slightly from our data, if they occured in-between our weather recording intervals... More about our weather records

Advertising

Gunsan weather history for previous 24 hours

 ConditionsComfort  
Time TempWeatherWind HumidityBarometerVisibility
7:58 AM
Fri, Mar 6
29 °FIce fog.1 mph77%30.28 "Hg5 mi
6:58 AM26 °FIce fog.5 mph78%30.27 "Hg5 mi
5:58 AM26 °FClear.3 mph79%30.27 "Hg10 mi
4:58 AM28 °FPassing clouds.5 mph70%30.28 "Hg10 mi
3:58 AM28 °FClear.6 mph66%30.28 "Hg10 mi
2:58 AM28 °FClear.3 mph79%30.30 "Hg10 mi
1:58 AM30 °FChilly.N/A61%30.32 "HgN/A
12:58 AM31 °FClear.2 mph59%30.29 "Hg10 mi
11:58 PM
Thu, Mar 5
31 °FClear.2 mph66%30.29 "Hg10 mi
10:58 PM34 °FClear.3 mph55%30.32 "Hg10 mi
9:58 PM34 °FClear.5 mph56%30.30 "Hg10 mi
8:58 PM33 °FPassing clouds.8 mph60%30.29 "Hg10 mi
7:58 PM34 °FPassing clouds.9 mph60%30.29 "Hg10 mi
6:58 PM36 °FClear.9 mph60%30.29 "Hg10 mi
5:58 PM37 °FSunny.10 mph53%30.28 "Hg10 mi
3:58 PM39 °FSunny.15 mph42%30.28 "Hg10 mi
2:58 PM40 °FScattered clouds.13 mph46%30.30 "Hg10 mi
1:58 PM38 °FPassing clouds.12 mph46%30.32 "Hg10 mi
12:58 PM38 °FScattered clouds.9 mph48%30.34 "Hg10 mi
11:58 AM36 °FOvercast.7 mph47%30.37 "Hg7 mi
10:58 AM36 °FBroken clouds.2 mph44%30.37 "Hg10 mi
9:58 AM33 °FSunny.2 mph59%30.37 "Hg10 mi
Weather by CustomWeather, © 2015

See weather overviewHow to use our weather pages